Location: Sternwarte ZA, Rosenfeld-Brittheim
(48.2889°N, 8.6789°E)
Time: 06:51:38
(UTC+01:00)

ISS - Pass Details

Date: 08 December 2019
Orbit: 411 x 421 km, 51.6° (Epoch: 15 December)

Event Time Altitude Azimuth Distance (km) Brightness Sun altitude
Rises 18:23:45 0° 291° (WNW) 2,360 1.0 -17.8°
Reaches altitude 10° 18:25:55 10° 283° (WNW) 1,496 0.0 -18.2°
Maximum altitude 18:29:04 39° 213° (SSW) 645 -2.5 -18.7°
Enters shadow 18:30:48 22° 157° (SSE) 981 -2.0 -19.0°
